Regional Weather Roundup
Issued by NWS

Home | Current Version | Previous Version | Graphics & Text | Print | Product List | Glossary On
Versions: 1 2 3 4 5 6 7 8 9 10 11 12 13 14 15 16 17 18 19 20 21 22 23 24 25 26 27 28 29 30 31 32 33 34 35 36 37 38 39 40 41 42 43 44 45 46 47 48 49 50
000
ASUS43 KMPX 241901
RWRMN
WEATHER ROUNDUP FOR MINNESOTA
NATIONAL WEATHER SERVICE TWIN CITIES/CHANHASSEN MN
200 PM CDT WED MAY 24 2017


NOTE: "FAIR" INDICATES FEW OR NO CLOUDS BELOW 12,000 FEET WITH NO
SIGNIFICANT WEATHER AND/OR OBSTRUCTIONS TO VISIBILITY. N/A MEANS
CURRENT SKY AND/OR WEATHER CONDITIONS ARE NOT AVAILABLE.

MNZ060>063-068>070-242000-
   Twin Cities Metro

CITY           SKY/WX    TMP DP  RH WIND       PRES   REMARKS
TWIN CITIES    CLOUDY    59  43  55 NE8       29.73F
ST PAUL        CLOUDY    58  45  62 N8        29.74S
CRYSTAL        CLOUDY    58  41  53 N9        29.73S
BLAINE         CLOUDY    61  43  51 NE10      29.74S
LAKEVILLE      CLOUDY    57  46  67 N7        29.73S
EDEN PRAIRIE   CLOUDY    60  44  55 NE7       29.72F
SOUTH ST PAUL  CLOUDY    58  43  56 NE6       29.73S
LAKE ELMO      CLOUDY    55  45  67 NE7       29.74F
$$
MNZ001>005-007-008-013>017-022>024-027-028-242000-
   Northwest Minnesota

CITY           SKY/WX    TMP DP  RH WIND       PRES   REMARKS
BEMIDJI        MOSUNNY   63  40  43 SE12      29.75F
HALLOCK        SUNNY     70  34  26 SE20G30   29.68F
ROSEAU         PTSUNNY   66  39  37 S15       29.71F
WARROAD        MOSUNNY   63  48  59 NE10      29.73F
CROOKSTON      SUNNY     66  41  39 S16G23    29.70F
FOSSTON        MOSUNNY   64  45  48 E9G18     29.73F
DETROIT LAKES  MOSUNNY   61  41  48 S14       29.74F
MOORHEAD       PTSUNNY   63  43  48 SE15      29.72F
PARK RAPIDS    CLOUDY    62  38  40 E16       29.74F
MAHNOMEN       MOCLDY    60  38  44 SE8G16    29.72F
$$
MNZ006-009>011-018-025>026-242000-
   North Central Minnesota

CITY           SKY/WX    TMP DP  RH WIND       PRES   REMARKS
BAUDETTE       MOSUNNY   65  36  34 VRB6      29.74F
FLAG ISLAND    SUNNY     59  46  63 S3        29.75F
INTL FALLS     MOSUNNY   64  37  36 VRB3G18   29.75F
WASKISH        PTSUNNY   66  39  37 E8        29.74F
BIG FORK       MOSUNNY   64  39  39 E10G17    29.76F
LONGVILLE      CLOUDY    57  43  58 SE5       29.77F
GRAND RAPIDS   CLOUDY    58  42  55 VRB3      29.79F
CRANE LAKE     SUNNY     64  32  29 NE3       29.78F
ORR            SUNNY     64  32  29 S3        29.73F
COOK           PTSUNNY   61  39  44 SE9       29.77F
WALKER         FAIR      57  40  53 E8        29.76F
$$
MNZ012-019>021-037-242000-
   Northeast Minnesota

CITY           SKY/WX    TMP DP  RH WIND       PRES   REMARKS
DULUTH         MOSUNNY   58  43  57 E15G21    29.77F
ELY            CLOUDY    61  36  39 E10       29.77F
HIBBING        CLOUDY    57  39  51 NE9       29.77F
EVELETH        PTSUNNY   58  32  37 SE8       29.79S
DULUTH HARBOR  CLOUDY    48  43  81 NE14      29.80F
TWO HARBORS    PTSUNNY   57  45  62 E12       29.78S
SILVER BAY     MOSUNNY   55  43  62 E12       29.79S
GRAND MARAIS     N/A     48  36  63 NE12      29.81F
G MARAIS ARPRT SUNNY     57  34  41 SE10G17   29.80F
$$
MNZ029>031-032-039>041-046>048-054>057-064-242000-
   West Central Minnesota

CITY           SKY/WX    TMP DP  RH WIND       PRES   REMARKS
FERGUS FALLS   CLOUDY    61  43  51 SE8       29.72F
WHEATON        CLOUDY    59  43  55 SE9       29.75F
MORRIS         PTSUNNY   63  46  55 E8        29.73F
ALEXANDRIA     CLOUDY    58  42  55 E10       29.75F
ELBOW LAKE     CLOUDY    59  43  55 SE12      29.74F
WADENA         CLOUDY    59  41  51 SE16      29.74F
GLENWOOD       PTSUNNY   57  45  62 E8        29.75F
APPLETON       CLOUDY    61  43  51 E3        29.74F
BENSON         CLOUDY    61  43  51 SE7       29.76F
ORTONVILLE     CLOUDY    57  43  58 E6        29.74S
MADISON        PTSUNNY   63  46  55 SE5       29.73F
WILLMAR        CLOUDY    59  45  58 E8        29.76F
$$
MNZ033>034-036-042>043-049>051-058-059-242000-
   Central Minnesota

CITY           SKY/WX    TMP DP  RH WIND       PRES   REMARKS
ST CLOUD       CLOUDY    56  44  64 E7        29.75S
SAUK CENTRE    CLOUDY    57  44  61 E8        29.76F
PAYNESVILLE    CLOUDY    56  43  61 NE8       29.76F
AITKIN         CLOUDY    57  43  58 E12       29.75F
PINE RIVER     CLOUDY    59  45  58 E9        29.81S
BRAINERD       CLOUDY    56  41  57 E7        29.77F
STAPLES        CLOUDY    57  39  51 SE7       29.76S
LONG PRAIRIE   CLOUDY    55  43  62 E8        29.76F
LITTLE FALLS   CLOUDY    54  41  62 E6        29.77F
LITCHFIELD     PTSUNNY   59  46  63 E5        29.75S
BUFFALO        CLOUDY    58  42  54 NE7       29.76S
MAPLE LAKE     CLOUDY    59  45  59 NE7       29.75F
HUTCHINSON     CLOUDY    59  47  66 N6        29.75S
$$
MNZ037-044-045-052-053-242000-
   East Central Minnesota

CITY           SKY/WX    TMP DP  RH WIND       PRES   REMARKS
PRINCETON      CLOUDY    59  45  58 NE3       29.76S
MORA           CLOUDY    55  41  58 E6        29.77F
CAMBRIDGE      CLOUDY    61  45  55 NE5       29.74S
RUSH CITY      CLOUDY    58  43  58 E5        29.75F
MOOSE LAKE     CLOUDY    57  41  54 E6        29.75S
HINCKLEY       CLOUDY    57  45  62 NE7       29.76S
CLOQUET        MOSUNNY   55  41  58 E12G20    29.78S
MCGREGOR       CLOUDY    55  43  62 NE7       29.77S
$$
MNZ071>073-080-081-089-090-097-098-242000-
   Southwest Minnesota

CITY           SKY/WX    TMP DP  RH WIND       PRES   REMARKS
CANBY          CLOUDY    60  44  56 CALM      29.75S
MARSHALL       CLOUDY    57  45  64 NE8       29.74F
REDWOOD FALLS  CLOUDY    60  42  51 NE7       29.74S
OLIVIA         CLOUDY    59  43  55 NE7       29.74S
PIPESTONE      PTSUNNY   59  39  47 NE6       29.73F
WINDOM         PTSUNNY   55  45  67 N6        29.74S
WORTHINGTON    CLOUDY    56  43  61 NE7       29.75S
JACKSON        CLOUDY    55  45  67 CALM      29.74S
TRACY          CLOUDY    58  46  65 NE7       29.75S
SLAYTON        CLOUDY    54  44  67 NE5       29.76R
$$
MNZ065>067-074>077-082>085-091>093-242000-
   South Central Minnesota

CITY           SKY/WX    TMP DP  RH WIND       PRES   REMARKS
MANKATO        CLOUDY    55  47  74 N3        29.74F
NEW ULM        MOSUNNY   57  46  67 E8        29.74S
ST JAMES       MOSUNNY   57  45  62 NE7       29.75S
FAIRMONT       PTSUNNY   56  47  71 N9        29.74F
GLENCOE        PTSUNNY   58  50  74 CALM      29.74F
FARIBAULT      MOSUNNY   61  48  63 N5        29.72F
OWATONNA       PTSUNNY   57  46  67 N9        29.72F
WASECA         PTSUNNY   55  46  71 N8        29.74S
ALBERT LEA     PTSUNNY   59  48  67 NE9       29.71F
$$
MNZ078>079-086>088-094>096-242000-
   Southeast Minnesota

CITY           SKY/WX    TMP DP  RH WIND       PRES   REMARKS
ROCHESTER      MOSUNNY   60  48  64 NE12      29.71F
RED WING       CLOUDY    61  41  48 NE3       29.70F
STANTON        CLOUDY    59  48  65 NE7       29.71F
DODGE CENTER   PTSUNNY   57  46  67 NE8       29.71S
WINONA         MOSUNNY   63  46  55 NE9       29.69F
AUSTIN         PTSUNNY   57  48  72 N9        29.70F
PRESTON        CLOUDY    56  46  69 NE5       29.69F
$$
ABBREVIATIONS USED IN REMARKS
   TC - TEMPERATURES IN CELSIUS
  WCI - WIND CHILL INDEX
   HX - HEAT INDEX
  VSB - VISIBILITY
$$



USA.gov is the U.S. government's official web portal to all federal, state and local government web resources and services.